�N����,����,�~����,�C��,���x,�C��,����,���ϕ���,�ő�u�ԕ���,�ő厞����,���˗�,�I�_���x,�n�����x,�ő啗���N��,DTYPE
"21/05/06","00:10",0.0,13.6,97.4,1011.6,296.4,0.7,0.9,345.3,0.00,13.2,130.0,"00:00:16",1
"21/05/06","00:20",0.0,13.4,97.6,1011.9,203.4,1.1,1.1,209.1,0.00,13.1,130.0,"00:11:04",1
"21/05/06","00:30",0.0,13.1,97.7,1011.9,305.4,1.0,1.0,305.4,0.00,12.8,130.0,"00:29:52",1
"21/05/06","00:40",0.0,13.0,97.9,1012.1,340.8,1.5,2.0,334.9,0.00,12.7,130.0,"00:39:34",1
"21/05/06","00:50",0.0,12.8,97.9,1011.9,302.2,1.5,1.8,313.8,0.00,12.5,130.0,"00:44:44",1
"21/05/06","01:00",0.0,12.8,98.0,1012.1,333.7,1.5,1.9,326.7,0.00,12.5,130.0,"00:51:54",1
"21/05/06","01:10",0.0,13.1,97.5,1011.9,338.3,1.7,2.5,329.3,0.00,12.8,130.0,"01:05:00",1
"21/05/06","01:20",0.0,12.7,97.9,1011.9,351.3,1.2,1.9,336.8,0.00,12.4,130.0,"01:14:28",1
"21/05/06","01:30",0.0,12.4,98.0,1012.3,348.2,1.1,2.0,329.6,0.00,12.1,130.0,"01:20:16",1
"21/05/06","01:40",0.0,12.4,97.5,1012.1,295.1,1.1,1.8,267.6,0.00,12.1,130.0,"01:36:10",1
"21/05/06","01:50",0.0,11.9,98.0,1011.9,294.5,0.8,2.1,311.5,0.00,11.6,130.0,"01:44:00",1
"21/05/06","02:00",0.0,11.7,97.6,1012.1,319.4,1.0,2.1,330.7,0.00,11.4,130.0,"01:57:12",1
"21/05/06","02:10",0.0,11.3,98.1,1012.1,333.7,1.0,2.1,339.9,0.00,11.1,130.0,"02:00:24",1
"21/05/06","02:20",0.0,11.1,97.9,1011.9,310.9,0.8,1.7,309.5,0.00,10.8,130.0,"02:15:44",1
"21/05/06","02:30",0.0,10.8,98.4,1012.1,320.4,1.1,2.1,342.2,0.00,10.6,130.0,"02:23:36",1
"21/05/06","02:40",0.0,11.1,97.9,1012.1,317.9,1.5,1.9,328.8,0.00,10.8,130.0,"02:35:20",1
"21/05/06","02:50",0.0,10.6,98.4,1012.1,332.0,1.1,1.7,335.6,0.00,10.4,130.0,"02:45:12",1
"21/05/06","03:00",0.0,10.4,98.0,1011.9,316.3,1.1,1.9,314.9,0.00,10.1,130.0,"02:51:44",1
"21/05/06","03:10",0.0,10.1,98.1,1012.1,319.8,0.8,2.1,339.7,0.00,9.9,130.0,"03:01:00",1
"21/05/06","03:20",0.0,10.1,98.0,1012.6,322.7,1.2,2.2,309.0,0.00,9.8,130.0,"03:15:50",1
"21/05/06","03:30",0.0,10.0,98.1,1012.3,291.7,0.7,1.4,268.8,0.00,9.8,130.0,"03:25:08",1
"21/05/06","03:40",0.0,10.2,98.1,1012.3,77.8,0.3,1.0,76.6,0.00,10.0,130.0,"03:37:44",1
"21/05/06","03:50",0.0,10.0,98.2,1012.6,299.7,1.1,1.7,353.7,0.00,9.8,130.0,"03:49:14",1
"21/05/06","04:00",0.0,9.9,98.1,1012.6,331.7,1.5,1.9,338.5,0.00,9.7,130.0,"03:51:50",1
"21/05/06","04:10",0.0,9.8,98.0,1012.6,305.2,1.0,1.2,309.0,0.00,9.5,130.0,"04:07:04",1
"21/05/06","04:20",0.0,9.5,98.2,1012.8,299.6,0.8,1.3,303.4,0.00,9.3,130.0,"04:13:28",1
"21/05/06","04:30",0.0,9.4,98.3,1012.8,291.1,1.0,1.3,307.0,0.00,9.2,130.0,"04:29:16",1
"21/05/06","04:40",0.0,9.3,98.1,1012.8,275.7,0.3,1.3,331.2,0.00,9.1,130.0,"04:32:32",1
"21/05/06","04:50",0.0,9.0,98.3,1013.3,287.5,0.6,1.1,301.3,0.00,8.8,130.0,"04:45:08",1
"21/05/06","05:00",0.0,9.2,98.3,1013.3,316.5,1.0,1.4,306.5,0.00,9.0,130.0,"04:50:20",1
"21/05/06","05:10",0.0,9.4,98.3,1013.5,283.9,0.2,0.8,27.2,0.00,9.2,130.0,"05:03:26",1
"21/05/06","05:20",0.0,10.0,98.2,1013.0,326.6,0.8,1.8,329.4,0.00,9.8,130.0,"05:10:54",1
"21/05/06","05:30",0.0,10.5,98.1,1013.5,326.2,1.8,3.4,326.4,0.00,10.3,130.0,"05:25:30",1
"21/05/06","05:40",0.0,10.8,98.0,1013.8,322.1,1.8,3.2,323.1,0.00,10.5,130.0,"05:37:04",1
"21/05/06","05:50",0.0,10.8,98.0,1013.8,319.8,1.6,2.5,341.9,0.00,10.5,130.0,"05:42:48",1
"21/05/06","06:00",0.0,10.7,98.1,1014.2,298.6,1.2,2.5,330.8,0.00,10.5,130.0,"05:51:28",1
"21/05/06","06:10",0.0,10.8,98.1,1014.0,266.7,0.8,1.1,274.2,0.01,10.6,130.0,"06:02:08",1
"21/05/06","06:20",0.0,11.3,98.1,1014.2,303.4,0.8,1.6,322.2,0.02,11.1,130.0,"06:12:24",1
"21/05/06","06:30",0.0,11.8,98.0,1014.2,317.7,1.7,3.4,303.1,0.03,11.5,130.0,"06:22:08",1
"21/05/06","06:40",0.0,12.1,97.9,1014.5,328.5,2.1,4.5,323.1,0.05,11.8,130.0,"06:33:42",1
"21/05/06","06:50",0.0,12.2,98.3,1014.5,325.6,2.7,4.3,332.5,0.07,12.0,130.0,"06:45:26",1
"21/05/06","07:00",0.0,12.6,97.7,1014.7,326.6,2.8,5.2,326.3,0.09,12.3,130.0,"06:59:52",1
"21/05/06","07:10",0.0,12.7,98.0,1014.5,327.2,2.8,5.0,338.9,0.12,12.4,130.0,"07:09:28",1
"21/05/06","07:20",0.0,12.8,97.4,1014.7,329.9,3.4,5.5,351.7,0.14,12.4,130.0,"07:14:56",1
"21/05/06","07:30",0.0,13.0,97.6,1015.2,326.0,3.1,4.4,343.6,0.17,12.7,130.0,"07:22:48",1
"21/05/06","07:40",0.0,13.4,97.3,1015.2,324.2,3.2,5.7,335.7,0.19,13.0,130.0,"07:36:24",1
"21/05/06","07:50",0.0,13.7,97.0,1014.9,311.3,2.8,5.1,330.2,0.22,13.3,130.0,"07:40:32",1
"21/05/06","08:00",0.0,14.1,96.3,1015.2,316.5,2.1,4.9,339.0,0.25,13.6,130.0,"07:58:24",1
"21/05/06","08:10",0.0,14.7,95.6,1015.2,319.0,2.1,4.4,343.5,0.27,14.0,130.0,"08:05:12",1
"21/05/06","08:20",0.0,15.6,94.8,1015.9,323.1,1.7,2.6,336.6,0.30,14.8,130.0,"08:10:32",1
"21/05/06","08:30",0.0,16.2,93.1,1015.4,329.1,1.8,3.1,338.5,0.32,15.1,130.0,"08:27:36",1
"21/05/06","08:40",0.0,16.9,91.0,1014.9,252.8,1.1,2.7,225.2,0.35,15.5,130.0,"08:31:20",1
"21/05/06","08:50",0.0,17.5,88.0,1014.9,83.1,0.6,1.7,99.8,0.37,15.5,130.0,"08:42:08",1
"21/05/06","09:00",0.0,18.3,83.9,1014.7,329.1,0.8,2.9,330.5,0.37,15.6,130.0,"08:58:56",1
"21/05/06","09:10",0.0,18.1,80.8,1014.5,13.2,1.3,2.6,57.9,0.38,14.8,130.0,"09:05:36",1
"21/05/06","09:20",0.0,18.6,78.3,1014.5,208.4,1.3,2.6,205.1,0.44,14.8,130.0,"09:18:32",1
"21/05/06","09:30",0.0,19.1,76.1,1014.0,243.3,1.1,2.9,233.0,0.47,14.8,130.0,"09:29:12",1
"21/05/06","09:40",0.0,19.7,74.9,1014.0,240.8,0.8,2.0,229.9,0.49,15.2,130.0,"09:30:24",1
"21/05/06","09:50",0.0,19.9,72.0,1014.0,56.2,1.0,2.8,125.7,0.51,14.7,130.0,"09:43:28",1
"21/05/06","10:00",0.0,20.3,68.5,1013.8,46.2,0.7,2.0,49.3,0.53,14.4,130.0,"09:59:12",1
"21/05/06","10:10",0.0,21.1,66.9,1013.5,114.3,0.8,2.2,164.0,0.55,14.8,130.0,"10:06:24",1
"21/05/06","10:20",0.0,21.2,64.0,1013.5,202.3,1.0,2.8,139.6,0.56,14.2,130.0,"10:10:24",1
"21/05/06","10:30",0.0,22.0,63.4,1013.3,190.4,1.0,2.2,218.7,0.58,14.8,130.0,"10:26:40",1
"21/05/06","10:40",0.0,21.8,61.5,1013.3,195.8,1.3,2.8,184.8,0.58,14.1,130.0,"10:33:52",1
"21/05/06","10:50",0.0,22.2,58.8,1013.0,212.8,1.3,3.1,230.7,0.60,13.8,130.0,"10:47:12",1
"21/05/06","11:00",0.2,22.0,57.5,1012.8,235.0,1.7,3.2,206.6,0.60,13.3,130.0,"10:51:52",1
"21/05/06","11:10",0.0,22.3,58.6,1012.8,251.5,1.5,3.3,234.0,0.59,13.8,130.0,"11:02:40",1
"21/05/06","11:20",0.0,22.4,51.8,1012.8,288.4,1.5,2.6,345.5,0.59,12.1,130.0,"11:14:16",1
"21/05/06","11:30",0.0,22.7,50.0,1012.8,298.5,1.7,3.7,318.1,0.62,11.8,130.0,"11:28:08",1
"21/05/06","11:40",0.0,23.6,52.4,1012.1,275.8,1.3,3.5,322.6,0.63,13.3,130.0,"11:32:32",1
"21/05/06","11:50",0.0,23.4,47.6,1012.3,259.5,1.7,4.4,220.4,0.65,11.7,130.0,"11:49:36",1
"21/05/06","12:00",0.0,23.4,50.6,1011.9,270.2,2.1,4.3,211.3,0.65,12.6,130.0,"11:52:00",1
"21/05/06","12:10",0.0,23.6,51.1,1011.6,271.1,1.6,3.5,271.9,0.63,13.0,130.0,"12:01:20",1
"21/05/06","12:20",0.0,24.0,50.8,1011.4,267.9,1.8,4.1,240.2,0.64,13.2,130.0,"12:10:40",1
"21/05/06","12:30",0.0,24.1,49.8,1011.2,279.9,2.0,5.7,349.7,0.64,13.0,130.0,"12:20:02",1
"21/05/06","12:40",0.0,24.3,50.2,1011.6,263.2,2.0,5.0,340.6,0.63,13.3,130.0,"12:30:08",1
"21/05/06","12:50",0.0,24.5,48.9,1011.4,256.4,2.0,3.6,232.8,0.64,13.1,130.0,"12:40:40",1
"21/05/06","13:00",0.0,24.7,48.4,1010.9,268.7,2.0,3.9,336.3,0.63,13.1,130.0,"12:52:08",1
"21/05/06","13:10",0.0,24.6,47.4,1010.7,309.6,2.2,4.4,325.7,0.61,12.7,130.0,"13:08:00",1
"21/05/06","13:20",0.0,24.4,47.0,1010.9,323.0,2.5,4.4,351.1,0.56,12.4,130.0,"13:13:52",1
"21/05/06","13:30",0.0,25.1,44.5,1010.7,278.7,1.5,2.8,330.9,0.56,12.2,130.0,"13:28:56",1
"21/05/06","13:40",0.0,25.1,43.0,1010.4,289.6,2.0,5.0,340.4,0.57,11.7,130.0,"13:31:04",1
"21/05/06","13:50",0.0,25.5,43.1,1010.4,259.3,1.6,3.2,301.9,0.56,12.1,130.0,"13:44:16",1
"21/05/06","14:00",0.0,25.5,40.8,1010.2,255.0,1.6,3.3,313.1,0.57,11.3,130.0,"13:50:24",1
"21/05/06","14:10",0.0,25.9,40.7,1009.7,248.6,1.7,4.5,218.1,0.57,11.6,130.0,"14:03:28",1
"21/05/06","14:20",0.0,25.4,40.2,1009.7,220.8,2.7,5.8,208.1,0.55,10.9,130.0,"14:18:56",1
"21/05/06","14:30",0.0,25.5,37.2,1009.7,225.8,2.7,5.7,228.3,0.53,9.9,130.0,"14:24:48",1
"21/05/06","14:40",0.0,25.7,34.5,1009.7,232.2,2.5,4.3,230.1,0.52,8.9,130.0,"14:36:08",1
"21/05/06","14:50",0.0,26.6,35.1,1009.0,239.6,1.7,4.4,233.7,0.50,10.0,130.0,"14:40:08",1
"21/05/06","15:00",0.0,26.9,34.8,1009.3,269.4,1.6,4.2,222.1,0.48,10.1,130.0,"14:54:08",1
"21/05/06","15:10",0.0,26.7,35.1,1008.8,247.0,1.7,5.5,205.2,0.46,10.1,130.0,"15:04:08",1
"21/05/06","15:20",0.0,26.5,34.3,1008.8,255.2,1.7,5.1,231.8,0.44,9.5,130.0,"15:10:24",1
"21/05/06","15:30",0.0,26.9,33.1,1008.8,262.4,1.3,2.7,214.2,0.42,9.4,130.0,"15:24:56",1
"21/05/06","15:40",0.0,26.8,31.4,1009.0,263.3,1.5,2.8,234.4,0.40,8.5,130.0,"15:31:20",1
"21/05/06","15:50",0.0,27.1,31.9,1008.8,281.5,1.1,2.5,253.9,0.38,9.0,130.0,"15:44:16",1
"21/05/06","16:00",0.0,27.1,31.4,1008.8,280.2,1.3,3.6,228.2,0.35,8.8,130.0,"15:54:08",1
"21/05/06","16:10",0.0,27.1,30.5,1008.6,261.4,1.1,2.6,224.3,0.33,8.3,130.0,"16:06:32",1
"21/05/06","16:20",0.0,26.7,37.1,1008.3,237.1,1.6,3.2,226.8,0.30,10.9,130.0,"16:17:28",1
"21/05/06","16:30",0.0,25.8,39.2,1008.3,204.5,2.2,3.3,190.3,0.27,10.9,130.0,"16:23:36",1
"21/05/06","16:40",0.0,25.8,40.2,1008.6,189.1,1.8,3.5,189.8,0.24,11.3,130.0,"16:39:12",1
"21/05/06","16:50",0.0,25.8,40.2,1009.0,192.5,2.0,4.5,195.3,0.21,11.3,130.0,"16:45:52",1
"21/05/06","17:00",0.0,25.4,43.9,1008.8,195.0,2.6,4.5,224.7,0.19,12.3,130.0,"16:53:12",1
"21/05/06","17:10",0.0,25.0,42.4,1008.8,188.7,2.3,4.1,178.5,0.15,11.4,130.0,"17:06:24",1
"21/05/06","17:20",0.0,24.7,45.5,1009.0,183.2,2.3,4.0,170.7,0.12,12.2,130.0,"17:11:44",1
"21/05/06","17:30",0.0,24.7,45.1,1009.3,194.2,2.0,3.5,200.9,0.11,12.1,130.0,"17:24:56",1
"21/05/06","17:40",0.0,24.3,45.4,1009.3,196.0,2.6,5.0,194.2,0.07,11.8,130.0,"17:31:44",1
"21/05/06","17:50",0.0,24.2,46.0,1009.5,204.2,2.2,3.4,207.1,0.02,11.9,130.0,"17:41:28",1
"21/05/06","18:00",0.0,23.9,47.1,1009.3,201.8,1.7,2.7,208.5,0.02,12.0,130.0,"17:54:40",1
"21/05/06","18:10",0.0,23.4,47.9,1009.5,238.7,0.8,1.9,190.6,0.01,11.8,130.0,"18:00:48",1
"21/05/06","18:20",0.0,23.0,51.3,1010.0,271.8,0.8,2.2,337.8,0.00,12.5,130.0,"18:17:12",1
"21/05/06","18:30",0.0,22.0,54.1,1010.0,293.5,0.7,1.4,337.2,0.00,12.3,130.0,"18:21:20",1
"21/05/06","18:40",0.0,21.2,57.6,1010.0,318.9,1.2,2.2,304.4,0.00,12.6,130.0,"18:31:04",1
"21/05/06","18:50",0.0,20.2,61.6,1010.0,312.1,1.7,2.8,333.3,0.00,12.6,130.0,"18:43:52",1
"21/05/06","19:00",0.0,19.6,63.9,1010.2,316.4,2.1,3.4,318.8,0.00,12.6,130.0,"18:55:28",1
"21/05/06","19:10",0.0,19.2,65.6,1010.4,322.8,2.5,4.2,327.4,0.00,12.6,130.0,"19:08:12",1
"21/05/06","19:20",0.0,18.9,66.8,1010.7,318.5,2.1,2.9,334.7,0.00,12.6,130.0,"19:10:48",1
"21/05/06","19:30",0.0,18.6,67.8,1010.4,322.2,2.3,3.1,333.6,0.00,12.6,130.0,"19:22:56",1
"21/05/06","19:40",0.0,18.4,68.4,1010.4,302.8,1.7,3.2,351.0,0.00,12.5,130.0,"19:30:08",1
"21/05/06","19:50",0.0,18.3,69.0,1010.7,313.4,1.5,2.0,333.2,0.00,12.6,130.0,"19:47:04",1
"21/05/06","20:00",0.0,18.0,69.5,1010.9,292.5,1.1,2.0,338.0,0.00,12.4,130.0,"19:50:08",1
"21/05/06","20:10",0.0,17.9,70.0,1010.9,284.0,0.8,1.4,320.6,0.00,12.4,130.0,"20:09:04",1
"21/05/06","20:20",0.0,17.9,71.2,1010.7,326.0,1.3,1.9,335.7,0.00,12.7,130.0,"20:14:00",1
"21/05/06","20:30",0.0,17.3,72.8,1011.2,329.3,1.3,2.0,330.6,0.00,12.4,130.0,"20:28:40",1
"21/05/06","20:40",0.0,17.0,73.8,1011.4,301.0,1.0,1.7,336.6,0.00,12.3,130.0,"20:30:08",1
"21/05/06","20:50",0.0,17.0,74.7,1011.2,317.2,1.5,2.1,325.1,0.00,12.5,130.0,"20:48:08",1
"21/05/06","21:00",0.0,16.9,75.7,1011.2,329.5,1.1,1.6,329.8,0.00,12.6,130.0,"20:53:04",1
"21/05/06","21:10",0.0,16.5,76.9,1011.4,308.7,1.3,1.9,309.3,0.00,12.5,130.0,"21:03:36",1
"21/05/06","21:20",0.0,16.4,77.6,1011.2,309.8,1.5,2.2,322.0,0.00,12.5,130.0,"21:12:16",1
"21/05/06","21:30",0.0,16.3,78.0,1011.6,311.0,1.3,1.9,335.9,0.00,12.5,130.0,"21:20:48",1
"21/05/06","21:40",0.0,16.2,78.1,1011.6,309.4,1.2,1.9,328.2,0.00,12.4,130.0,"21:33:52",1
"21/05/06","21:50",0.0,16.1,78.4,1011.9,305.0,1.3,1.7,299.4,0.00,12.4,130.0,"21:40:08",1
"21/05/06","22:00",0.0,16.2,78.5,1012.3,312.6,1.7,2.5,326.4,0.00,12.5,130.0,"21:59:12",1
"21/05/06","22:10",0.0,16.2,78.5,1012.1,323.4,1.2,1.9,319.3,0.00,12.5,130.0,"22:00:48",1
"21/05/06","22:20",0.0,15.8,79.0,1011.9,301.0,1.1,1.7,323.3,0.00,12.2,130.0,"22:10:16",1
"21/05/06","22:30",0.0,15.8,79.5,1012.3,314.9,1.2,1.7,340.3,0.00,12.3,130.0,"22:29:52",1
"21/05/06","22:40",0.0,15.5,80.3,1011.9,322.1,1.2,2.1,338.7,0.00,12.2,130.0,"22:31:28",1
"21/05/06","22:50",0.0,14.9,81.3,1011.9,317.7,1.1,1.4,308.5,0.00,11.8,130.0,"22:43:52",1
"21/05/06","23:00",0.0,14.7,82.1,1011.9,325.4,1.1,1.7,339.0,0.00,11.7,130.0,"22:59:44",1
"21/05/06","23:10",0.0,14.3,82.9,1011.6,323.8,1.2,1.6,346.6,0.00,11.5,130.0,"23:01:04",1
"21/05/06","23:20",0.0,13.9,83.6,1011.9,306.9,1.0,1.4,311.7,0.00,11.2,130.0,"23:12:56",1
"21/05/06","23:30",0.0,13.7,84.3,1011.6,315.6,1.1,1.6,332.5,0.00,11.1,130.0,"23:24:08",1
"21/05/06","23:40",0.0,13.6,84.9,1011.6,320.4,1.1,1.4,327.6,0.00,11.2,130.0,"23:38:40",1
"21/05/06","23:50",0.0,13.5,85.4,1011.6,315.9,1.2,1.7,329.5,0.00,11.1,130.0,"23:47:12",1
"21/05/06","24:00",0.0,13.5,85.9,1011.4,310.9,1.2,1.7,328.8,0.00,11.2,130.0,"23:59:44",1
